TimeAKDT,TemperatureF,Dew PointF,Humidity,Sea Level PressureIn,VisibilityMPH,Wind Direction,Wind SpeedMPH,Gust SpeedMPH,PrecipitationIn,Events,Conditions,WindDirDegrees,DateUTC
12:16 AM,53.6,51.8,94,30.02,4.0,Calm,Calm,-,N/A,,Overcast,0,2013-08-04 08:16:00
12:36 AM,53.6,51.8,94,30.02,4.0,Calm,Calm,-,0.01,,Overcast,0,2013-08-04 08:36:00
12:56 AM,53.6,51.8,94,30.02,4.0,Calm,Calm,-,0.01,,Overcast,0,2013-08-04 08:56:00
1:16 AM,51.8,50.0,94,30.02,5.0,Calm,Calm,-,0.01,,Overcast,0,2013-08-04 09:16:00
1:36 AM,53.6,51.8,94,30.02,3.0,Calm,Calm,-,0.02,,Overcast,0,2013-08-04 09:36:00
1:56 AM,51.8,50.0,94,30.02,4.0,Calm,Calm,-,0.04,,Overcast,0,2013-08-04 09:56:00
2:16 AM,51.8,48.2,88,30.02,3.0,Calm,Calm,-,0.02,,Overcast,0,2013-08-04 10:16:00
2:36 AM,51.8,48.2,88,30.02,3.0,Calm,Calm,-,0.04,,Overcast,0,2013-08-04 10:36:00
2:56 AM,51.8,48.2,88,30.03,4.0,Calm,Calm,-,0.05,,Overcast,0,2013-08-04 10:56:00
3:16 AM,51.8,48.2,88,30.03,3.0,Calm,Calm,-,0.01,,Overcast,0,2013-08-04 11:16:00
3:36 AM,51.8,48.2,88,30.02,4.0,East,3.5,-,0.02,,Overcast,90,2013-08-04 11:36:00
3:56 AM,51.8,48.2,88,30.02,3.0,East,3.5,-,0.03,,Overcast,90,2013-08-04 11:56:00
4:16 AM,50.0,48.2,94,30.02,7.0,Calm,Calm,-,0.01,,Overcast,0,2013-08-04 12:16:00
4:36 AM,48.2,46.4,93,30.02,10.0,Calm,Calm,-,0.01,,Overcast,0,2013-08-04 12:36:00
4:56 AM,50.0,46.4,87,30.02,10.0,Calm,Calm,-,0.01,,Overcast,0,2013-08-04 12:56:00
5:16 AM,48.2,46.4,93,30.02,10.0,Calm,Calm,-,N/A,,Overcast,0,2013-08-04 13:16:00
5:36 AM,48.2,46.4,93,30.02,10.0,Calm,Calm,-,N/A,,Overcast,0,2013-08-04 13:36:00
5:56 AM,48.2,46.4,93,30.02,10.0,East,3.5,-,N/A,,Overcast,90,2013-08-04 13:56:00
6:16 AM,50.0,46.4,87,30.02,3.0,Calm,Calm,-,N/A,,Overcast,0,2013-08-04 14:16:00
6:36 AM,48.2,46.4,93,30.01,3.0,Calm,Calm,-,N/A,,Overcast,0,2013-08-04 14:36:00
6:56 AM,48.2,46.4,93,30.02,3.0,East,3.5,-,N/A,,Overcast,80,2013-08-04 14:56:00
7:16 AM,50.0,48.2,94,30.02,3.0,Calm,Calm,-,N/A,,Overcast,0,2013-08-04 15:16:00
7:36 AM,51.8,48.2,88,30.02,3.0,Calm,Calm,-,N/A,,Overcast,0,2013-08-04 15:36:00
7:56 AM,51.8,48.2,88,30.02,2.0,Calm,Calm,-,N/A,,Overcast,0,2013-08-04 15:56:00
8:16 AM,51.8,48.2,88,30.03,2.0,Calm,Calm,-,N/A,,Overcast,0,2013-08-04 16:16:00
8:36 AM,51.8,48.2,88,30.03,2.0,Calm,Calm,-,N/A,,Overcast,0,2013-08-04 16:36:00
8:56 AM,51.8,48.2,88,30.03,1.0,Calm,Calm,-,N/A,,Overcast,0,2013-08-04 16:56:00
9:16 AM,51.8,48.2,88,30.03,1.0,Calm,Calm,-,N/A,,Overcast,0,2013-08-04 17:16:00
9:36 AM,53.6,50.0,88,30.02,1.0,Calm,Calm,-,N/A,,Overcast,0,2013-08-04 17:36:00
9:56 AM,53.6,50.0,88,30.02,1.0,Calm,Calm,-,N/A,,Mostly Cloudy,0,2013-08-04 17:56:00
10:16 AM,53.6,51.8,94,30.02,1.0,Calm,Calm,-,N/A,,Mostly Cloudy,0,2013-08-04 18:16:00
10:36 AM,55.4,50.0,82,30.02,1.0,Calm,Calm,-,N/A,,Mostly Cloudy,0,2013-08-04 18:36:00
10:56 AM,55.4,51.8,88,30.02,5.0,SSW,4.6,-,N/A,,Mostly Cloudy,200,2013-08-04 18:56:00
11:16 AM,55.4,51.8,88,30.02,5.0,WSW,4.6,-,N/A,,Mostly Cloudy,250,2013-08-04 19:16:00
11:36 AM,55.4,51.8,88,30.02,5.0,WSW,5.8,-,N/A,,Mostly Cloudy,250,2013-08-04 19:36:00
11:56 AM,53.6,51.8,94,30.03,4.0,SW,4.6,-,N/A,,Mostly Cloudy,230,2013-08-04 19:56:00
12:16 PM,55.4,51.8,88,30.03,4.0,Calm,Calm,-,N/A,,Mostly Cloudy,0,2013-08-04 20:16:00
12:36 PM,55.4,51.8,88,30.03,4.0,SW,3.5,-,N/A,,Mostly Cloudy,230,2013-08-04 20:36:00
12:56 PM,57.2,51.8,82,30.03,5.0,SW,3.5,-,N/A,,Mostly Cloudy,230,2013-08-04 20:56:00
1:16 PM,59.0,53.6,82,30.03,5.0,WSW,5.8,-,N/A,,Mostly Cloudy,240,2013-08-04 21:16:00
1:36 PM,57.2,51.8,82,30.03,5.0,WSW,8.1,-,N/A,,Mostly Cloudy,250,2013-08-04 21:36:00
1:56 PM,57.2,51.8,82,30.03,6.0,WSW,9.2,-,N/A,,Mostly Cloudy,250,2013-08-04 21:56:00
2:16 PM,57.2,51.8,82,30.03,6.0,WSW,8.1,-,N/A,,Mostly Cloudy,240,2013-08-04 22:16:00
2:36 PM,57.2,51.8,82,30.03,6.0,SW,8.1,-,N/A,,Mostly Cloudy,230,2013-08-04 22:36:00
2:56 PM,57.2,51.8,82,30.03,7.0,WSW,6.9,-,N/A,,Mostly Cloudy,240,2013-08-04 22:56:00
3:16 PM,57.2,51.8,82,30.04,7.0,WSW,5.8,-,N/A,,Mostly Cloudy,250,2013-08-04 23:16:00
3:36 PM,57.2,51.8,82,30.03,7.0,West,3.5,-,N/A,,Mostly Cloudy,260,2013-08-04 23:36:00
3:56 PM,57.2,51.8,82,30.03,8.0,WSW,3.5,-,N/A,,Overcast,250,2013-08-04 23:56:00
4:16 PM,57.2,51.8,82,30.03,8.0,WSW,3.5,-,N/A,,Overcast,250,2013-08-05 00:16:00
4:36 PM,57.2,51.8,82,30.03,8.0,West,3.5,-,N/A,,Overcast,270,2013-08-05 00:36:00
4:56 PM,57.2,51.8,82,30.03,10.0,Calm,Calm,-,N/A,,Mostly Cloudy,0,2013-08-05 00:56:00
5:16 PM,57.2,51.8,82,30.03,10.0,Calm,Calm,-,N/A,,Mostly Cloudy,0,2013-08-05 01:16:00
5:36 PM,57.2,51.8,82,30.03,10.0,WSW,3.5,-,N/A,,Mostly Cloudy,240,2013-08-05 01:36:00
5:56 PM,57.2,51.8,82,30.03,10.0,WSW,4.6,-,N/A,,Mostly Cloudy,240,2013-08-05 01:56:00
6:16 PM,57.2,50.0,77,30.03,10.0,West,3.5,-,N/A,,Mostly Cloudy,260,2013-08-05 02:16:00
6:36 PM,57.2,51.8,82,30.03,10.0,Calm,Calm,-,N/A,,Mostly Cloudy,0,2013-08-05 02:36:00
6:56 PM,57.2,51.8,82,30.03,10.0,Calm,Calm,-,N/A,,Mostly Cloudy,0,2013-08-05 02:56:00
7:16 PM,57.2,51.8,82,30.03,10.0,Calm,Calm,-,N/A,,Mostly Cloudy,0,2013-08-05 03:16:00
7:36 PM,57.2,51.8,82,30.03,10.0,Calm,Calm,-,N/A,,Mostly Cloudy,0,2013-08-05 03:36:00
7:56 PM,55.4,50.0,82,30.03,10.0,Calm,Calm,-,N/A,,Overcast,0,2013-08-05 03:56:00
8:16 PM,55.4,50.0,82,30.03,10.0,East,3.5,-,N/A,,Overcast,80,2013-08-05 04:16:00
8:36 PM,55.4,50.0,82,30.03,10.0,East,3.5,-,N/A,,Overcast,80,2013-08-05 04:36:00
8:56 PM,55.4,50.0,82,30.03,10.0,Calm,Calm,-,N/A,,Overcast,0,2013-08-05 04:56:00
9:16 PM,55.4,51.8,88,30.03,10.0,Calm,Calm,-,N/A,,Overcast,0,2013-08-05 05:16:00
9:36 PM,53.6,48.2,82,30.03,10.0,East,3.5,-,N/A,,Overcast,80,2013-08-05 05:36:00
9:56 PM,53.6,48.2,82,30.03,10.0,East,3.5,-,N/A,,Overcast,90,2013-08-05 05:56:00
10:16 PM,51.8,46.4,82,30.03,10.0,East,4.6,-,N/A,,Overcast,90,2013-08-05 06:16:00
10:36 PM,53.6,48.2,82,30.03,10.0,Calm,Calm,-,N/A,,Overcast,0,2013-08-05 06:36:00
10:56 PM,51.8,46.4,82,30.04,10.0,East,3.5,-,N/A,,Overcast,90,2013-08-05 06:56:00
11:16 PM,51.8,46.4,82,30.04,10.0,Calm,Calm,-,N/A,,Overcast,0,2013-08-05 07:16:00
11:36 PM,51.8,46.4,82,30.04,10.0,Calm,Calm,-,N/A,,Overcast,0,2013-08-05 07:36:00
11:56 PM,50.0,46.4,87,30.04,10.0,East,4.6,-,N/A,,Overcast,80,2013-08-05 07:56:00